User: anonymous   Login
Location: George Washington National Forest Helicopter Landing Site
(38.6463°N, 79.0851°W)
Time: 04:56:38
(UTC-04:00)
Language:

Transit 2A Rocket - Orbit

View from above orbital plane
View from above orbital plane
View from above satellite
View from above satellite

Ground track
Ground track

The orbit data is extracted from the following two-line orbital elements,

1    47U 60007C   19237.93261290 -.00000053 +00000-0 +13164-4 0  9996
2    47 066.6641 227.8142 0225725 162.1149 198.8068 14.42046427091920
Epoch (UTC): 25 August 2019 22:22:57
Eccentricity: 0.0225725
inclination: 66.6641°
perigee height: 591 km
apogee height: 912 km
right ascension of ascending node: 227.8142°
argument of perigee: 162.1149°
revolutions per day: 14.42046427
mean anomaly at epoch: 198.8068°
orbit number at epoch: 9192

The dashed part of the orbit path shows where the satellite is in the earth's shadow,  

DLR